STARLINK-1577, 46063

Orbit data source: Space-Track

STARLINK-1577, 46063 is a payload satellite in LEO that was launched on Fri, 07 Aug 2020 UTC via an FALCON 9 launch vehicle from the Air Force Eastern Test Range (AFETR). Payload-class satellites include a variety of spacecraft equipped with specific instruments for various scientific and technological missions. These include communications satellites like Starlink; space stations such as the ISS; scientific satellites like the Hubble; Earth observation satellites from companies like Planet Labs, Umbra, and HawkEye 360; GPS; miniature CubeSats for education and research; and military/defense satellites.

Loading next visibility...
Identifier
46063, 2020-055AN
Orbit
LEO
Last TLE update
18 hours ago
Origin
Manufacturer
SpaceX/Seattle
Mission
Operational Commercial Communications
Bus & Motor
STARLINK, Unknown motor
Mass
260 kg wet, ~248 kg dry
Launch date (UTC)
2020-08-07 (5 years ago)
Launch vehicle
FALCON 9
Launch site
Air Force Eastern Test Range (AFETR)
Object type
Payload
Rocket body
Debris
Shape & HBR
Box + 1 Pan, 8.86 m
Radar Cross Section
13.562 m², Large (>1 m²)

Expand to show TLE details & history

TLE from 18 hours ago
0 STARLINK-1577
1 46063U 20055AN  25141.28372175 -.00000322  00000-0 -26911-5 0  9992
2 46063  53.0545 349.2801 0001402  87.8046 272.3104 15.06393415264952
Epoch: 2025-05-21T06:48Z
TLE epoch observation values (Epoch: 2025-05-21T06:48:33.559Z)
Latitude
0.00003°
Longitude
7.97045°
Altitude
548.072 km
Speed
7.589 km/s
True Right ascension
23h 17m 07s
True Declination
0° 00' 00"
Sunlit
Object was in daylight at epoch
Visualization orbit readout
Latitude
47.22864°
Longitude
58.58964°
Altitude
551.528 km
Speed
7.592 km/s
Apparent Right ascension
00h 04m 28s
Apparent Declination
7° 27' 38"
Sunlit
Object is in daylight
Visualization observer readout
Local Sidereal Time
09:36:13
Azimuth
315.461° NNW
Elevation
-31.57°
Doppler factor
1
Orbital elements
Apogee altitude
548.473 km
Perigee altitude
546.531 km
Semi-major axis
6,925.639 km
Eccentricity
0.00014
Inclination
53.0545°
RAAN
349.2801°
Arg. of periapsis
87.8046°
True anomaly
Unknown
Mean anomaly
272.3104°
Eccentric anomaly
Unknown
Mean motion
3.76577 °/min
Orbital period
95.6 mins
BSTAR
-0.0000026911
Loading maneuver chart data...
Loading SW <> Apogee altitude chart data...
Loading historical data...
Loading historical data...
Loading historical data...
Loading historical data...
Loading historical data...
Loading historical data...
Loading historical data...

STARLINK-1577 Visibility forecast

Observer location: undefined°, undefined°

Span
Click to sort rows by Start time (UTC) header in descending order
Start Az.
Max El. time (UTC)
Max El. Az.
Max El.
End time (UTC)
End Az.
4 mins2025-05-22 00:54:05.277Z265.506° W2025-05-22 00:56:05.277Z233.815° WSW15.116°2025-05-22 00:58:05.277Z202.076° SSW
7 mins2025-05-22 16:26:05.277Z231.812° WSW2025-05-22 16:29:05.277Z289.907° WNW44.842°2025-05-22 16:33:05.277Z49.27° ENE
5 mins2025-05-22 18:07:05.277Z301.224° NW2025-05-22 18:09:05.277Z337.317° NNW19.271°2025-05-22 18:12:05.277Z26.72° NE
4 mins2025-05-22 21:29:05.277Z349.339° N2025-05-22 21:31:05.277Z29.343° NE20°2025-05-22 21:33:05.277Z64.301° ENE
6 mins2025-05-22 23:08:05.277Z308.749° NW2025-05-22 23:11:05.277Z141.638° SSE43.719°2025-05-22 23:14:05.277Z132.454° SE
|